| time (UTC) | temp F | wind direction | speed knots | gust knots | rain 1hr in | rain 24hr in | rain mn in | humidity % | barometer mb |
| 20260503224539 | 66 | 252 | 2.6 | 8.7 | 0.00 | 0.00 | 0.00 | 55 | 1015.8 |
| 20260503223041 | 67 | 279 | 1.7 | 12.2 | 0.00 | 0.00 | 0.00 | 55 | 1015.8 |
| 20260503221530 | 68 | 249 | 2.6 | 9.6 | 0.00 | 0.00 | 0.00 | 52 | 1015.9 |
| 20260503220038 | 67 | 277 | 0.9 | 7.0 | 0.00 | 0.00 | 0.00 | 56 | 1016.1 |
| 20260503214535 | 64 | 238 | 5.2 | 12.2 | 0.00 | 0.00 | 0.00 | 59 | 1016.1 |
| 20260503213035 | 67 | 338 | 0.9 | 9.6 | 0.00 | 0.00 | 0.00 | 56 | 1016.0 |
| 20260503211535 | 66 | 230 | 2.6 | 7.8 | 0.00 | 0.00 | 0.00 | 56 | 1015.9 |
| 20260503210044 | 64 | 211 | 4.3 | 11.3 | 0.00 | 0.00 | 0.00 | 58 | 1016.0 |
| 20260503204550 | 65 | 219 | 1.7 | 10.4 | 0.00 | 0.00 | 0.00 | 58 | 1016.2 |
| 20260503203037 | 64 | 261 | 4.3 | 11.3 | 0.00 | 0.00 | 0.00 | 58 | 1016.4 |
| 20260503201536 | 67 | 284 | 2.6 | 8.7 | 0.00 | 0.00 | 0.00 | 52 | 1016.5 |
| 20260503200045 | 64 | 234 | 0.9 | 10.4 | 0.00 | 0.00 | 0.00 | 58 | 1016.3 |
| 20260503194536 | 67 | 262 | 1.7 | 11.3 | 0.00 | 0.00 | 0.00 | 54 | 1016.4 |
| 20260503193035 | 65 | 257 | 0.9 | 8.7 | 0.00 | 0.00 | 0.00 | 55 | 1016.4 |
| 20260503191535 | 63 | 257 | 3.5 | 7.8 | 0.00 | 0.00 | 0.00 | 56 | 1016.4 |
| 20260503190043 | 64 | 32 | 0.0 | 7.8 | 0.00 | 0.00 | 0.00 | 59 | 1016.5 |
| 20260503184535 | 62 | 243 | 1.7 | 8.7 | 0.00 | 0.00 | 0.00 | 61 | 1016.6 |
| 20260503183034 | 62 | 243 | 1.7 | 7.8 | 0.00 | 0.00 | 0.00 | 63 | 1016.7 |
| 20260503181539 | 61 | 0 | 0.9 | 7.0 | 0.00 | 0.00 | 0.00 | 65 | 1016.8 |
| 20260503180035 | 60 | 220 | 0.9 | 7.0 | 0.00 | 0.00 | 0.00 | 69 | 1016.8 |
| 20260503174535 | 58 | 231 | 2.6 | 7.8 | 0.00 | 0.00 | 0.00 | 71 | 1016.9 |
| 20260503173049 | 58 | 241 | 0.0 | 2.6 | 0.00 | 0.00 | 0.00 | 74 | 1017.0 |
| 20260503171538 | 58 | 230 | 0.9 | 7.0 | 0.00 | 0.00 | 0.00 | 76 | 1017.0 |
| 20260503081550 | 55 | 0 | 0.0 | 0.0 | 0.00 | 0.00 | 0.00 | 87 | 1015.4 |
| 20260503071539 | 54 | 71 | 0.0 | 2.6 | 0.00 | 0.00 | 0.00 | 88 | 1015.3 |
| 20260503054537 | 53 | 0 | 0.0 | 0.9 | 0.00 | 0.00 | 0.00 | 90 | 1014.8 |
| 20260503053036 | 52 | 0 | 0.0 | 0.0 | 0.00 | 0.00 | 0.00 | 89 | 1014.8 |
| 20260503051537 | 52 | 0 | 0.0 | 0.0 | 0.00 | 0.00 | 0.00 | 89 | 1014.8 |
| 20260503050035 | 52 | 0 | 0.0 | 0.0 | 0.00 | 0.00 | 0.00 | 88 | 1014.5 |
| 20260503044540 | 53 | 0 | 0.0 | 0.0 | 0.00 | 0.00 | 0.00 | 87 | 1014.3 |
| 20260503043032 | 53 | 0 | 0.0 | 0.9 | 0.00 | 0.00 | 0.00 | 88 | 1014.2 |
| 20260503041530 | 54 | 0 | 0.0 | 1.7 | 0.00 | 0.00 | 0.00 | 87 | 1014.3 |
| 20260503040037 | 54 | 241 | 0.0 | 4.3 | 0.00 | 0.00 | 0.00 | 87 | 1014.2 |
| 20260503034535 | 54 | 241 | 0.0 | 0.9 | 0.00 | 0.00 | 0.00 | 85 | 1014.2 |
| 20260503033034 | 55 | 0 | 0.0 | 2.6 | 0.00 | 0.00 | 0.00 | 85 | 1014.1 |
| 20260503031530 | 55 | 240 | 0.9 | 4.3 | 0.00 | 0.00 | 0.00 | 84 | 1014.2 |
| 20260503030033 | 56 | 0 | 0.0 | 4.3 | 0.00 | 0.00 | 0.00 | 82 | 1014.0 |
| 20260503024529 | 56 | 0 | 0.0 | 6.1 | 0.00 | 0.00 | 0.00 | 81 | 1013.8 |
| 20260503023038 | 57 | 258 | 0.0 | 4.3 | 0.00 | 0.00 | 0.00 | 79 | 1013.5 |
| 20260503021540 | 58 | 238 | 0.9 | 5.2 | 0.00 | 0.00 | 0.00 | 77 | 1013.6 |
| 20260503020030 | 59 | 215 | 0.9 | 5.2 | 0.00 | 0.00 | 0.00 | 75 | 1013.6 |
| 20260503014537 | 60 | 0 | 0.0 | 7.8 | 0.00 | 0.00 | 0.00 | 74 | 1013.7 |
| 20260503013036 | 60 | 275 | 0.0 | 7.0 | 0.00 | 0.00 | 0.00 | 74 | 1013.7 |
| 20260503011534 | 61 | 263 | 3.5 | 7.8 | 0.00 | 0.00 | 0.00 | 73 | 1013.9 |
| 20260503010038 | 62 | 242 | 0.9 | 8.7 | 0.00 | 0.00 | 0.00 | 72 | 1013.8 |
| 20260503004530 | 62 | 220 | 1.7 | 7.0 | 0.00 | 0.00 | 0.00 | 72 | 1014.0 |
| 20260503003030 | 63 | 284 | 0.9 | 11.3 | 0.00 | 0.00 | 0.00 | 71 | 1013.9 |
| 20260503001537 | 63 | 242 | 0.9 | 8.7 | 0.00 | 0.00 | 0.00 | 70 | 1013.8 |
| 20260503000045 | 63 | 269 | 1.7 | 10.4 | 0.00 | 0.00 | 0.00 | 71 | 1013.8 |
| 20260502234532 | 63 | 207 | 3.5 | 8.7 | 0.00 | 0.00 | 0.00 | 70 | 1013.9 |
| 20260502233032 | 65 | 269 | 1.7 | 7.8 | 0.00 | 0.00 | 0.00 | 66 | 1013.9 |
| 20260502231900 | 64 | 247 | 2.6 | 8.7 | 0.00 | 0.00 | 0.00 | 68 | 1014.1 |
| 20260502230031 | 65 | 256 | 1.7 | 8.7 | 0.00 | 0.00 | 0.00 | 68 | 1014.2 |